Simultaneous Nadir Overpasses (SNOs) Predictions

Prediction of SNOs between GOES-16 and NPP Satellite Orbit:

Table of predicted SNOs for the next 14.0 days since TLE Epoch: 11/16/2024
Index Date Time (GOES-16) GOES-16 Lat,Lon NPP Lat,Lon Distance(km) Time Diff (sec)
1 11/17/2024 18:25:59 -0.01, -75.19 -0.13, -75.60 46.85 80
2 11/18/2024 18:09:54 -0.01, -75.20 0.89, -71.06 470.33 80
3 11/20/2024 06:31:40 0.01, -75.19 0.27, -76.33 130.39 80
4 11/21/2024 06:10:15 0.01, -75.19 -0.75, -71.80 387.09 80
5 11/22/2024 18:32:10 -0.00, -75.22 -0.41, -77.10 213.78 80
6 11/23/2024 18:16:04 -0.00, -75.23 0.56, -72.55 304.54 80
7 11/25/2024 06:37:50 0.00, -75.24 0.58, -77.82 293.97 80
8 11/26/2024 06:16:24 0.00, -75.25 -0.46, -73.29 224.63 80
9 11/27/2024 18:38:19 -0.00, -75.29 -0.74, -78.58 375.10 80
10 11/28/2024 18:22:13 -0.00, -75.31 0.30, -74.05 143.92 80
